406  
ASUS41 KBOX 221010  
RWRBOX  
 
REGIONAL WEATHER ROUNDUP  
NATIONAL WEATHER SERVICE TAUNTON MA  
500 AM EST THU FEB 22 2018  
 
NOTE: "FAIR" INDICATES FEW OR NO CLOUDS BELOW 12,000 FEET WITH NO  
SIGNIFICANT WEATHER AND/OR S TO VISIBILITY
.  
 
MAZALL-221100-  
EASTERN MASSACHUSETTS  
 
CITY SKY/WX TMP DP RH WIND PRES REMARKS
 
BOSTON CLOUDY 44 24 45 N12 30.56R  
BEVERLY CLOUDY 42 24 49 N12 30.55R  
LAWRENCE CLOUDY 43 22 43 N8 30.59R  
BEDFORD CLOUDY 42 24 49 N10 30.56R  
BLUE HILL N/A 42 23 46 N16G24 30.52R  
NORWOOD CLOUDY 47 26 44 N10 30.55R  
MARSHFIELD CLOUDY 45 34 65 N8 30.55R  
PLYMOUTH LGT RAIN 46 31 55 N12G20 30.53R  
TAUNTON LGT RAIN 47 26 44 N8G17 30.53R  
NEW BEDFORD CLOUDY 49 26 41 N5 30.52R  

 
 
MAZALL-221100-  
CAPE COD AND THE ISLANDS  
 
CITY SKY/WX TMP DP RH WIND PRES REMARKS
 
FALMOUTH CLOUDY 43 32 65 NE15 30.54  
HYANNIS N/A 44 35 70 MISG N/A  
CHATHAM CLOUDY 45 36 70 NE12G22 30.53R  
PROVINCETOWN CLOUDY 42 34 73 NE13 30.56R  
NANTUCKET CLOUDY 44 39 82 NE16 30.50R  
MARTHAS VNYRD CLOUDY N/A N/A N/A NE14 30.51R  

 
 
MAZALL-221100-  
CENTRAL AND WESTERN MASSACHUSETTS  
 
CITY SKY/WX TMP DP RH WIND PRES REMARKS
 
WORCESTER CLOUDY 40 32 73 N7 30.53R  
FITCHBURG CLOUDY 44 22 41 N8 30.58R  
ORANGE CLOUDY 39 24 55 N9 30.56R  
SPRINGFIELD CLOUDY 43 19 38 N9 30.55R  
WESTFIELD CLOUDY 43 20 39 NE8 30.56R  
NORTH ADAMS CLOUDY 37 26 64 W6 30.56S  
PITTSFIELD CLOUDY 38 26 62 NW3 30.52R  

 
 
RIZALL-221100-  
RHODE ISLAND  
 
CITY SKY/WX TMP DP RH WIND PRES REMARKS
 
PROVIDENCE LGT RAIN 48 24 39 N10 30.54R  
NEWPORT CLOUDY 48 26 42 N9 30.51R  
BLOCK ISLAND LGT RAIN 46 43 89 NE8 30.51R  
SMITHFIELD CLOUDY 45 18 34 MISG 30.54R  
WESTERLY LGT RAIN 50 42 74 N8 30.52R  

 
 
CTZALL-221100-  
CONNECTICUT  
 
CITY SKY/WX TMP DP RH WIND PRES REMARKS
 
BRADLEY INTL CLOUDY 44 25 47 N12 30.55R  
HARTFORD LGT RAIN 46 36 68 NE8 30.55R  
BRIDGEPORT LGT RAIN 47 34 60 N14 30.53R  
DANBURY LGT RAIN 42 36 79 N6 30.56R  
GROTON LGT RAIN 49 38 65 N10 30.52R  
NEW HAVEN CLOUDY 47 36 65 N10 30.53R  
CHESTER LGT RAIN 46 37 71 N6G13 30.53R  
MERIDEN LGT RAIN 45 37 73 N7 30.54R  
WILLIMANTIC CLOUDY 49 26 41 N6 30.56R  
OXFORD LGT RAIN 41 37 86 N7 30.53R  

 
 
MEZ002-015-021-024-NHZ003-005-008-011-012-014-VTZ005-008-221100-  
NORTHERN NEW ENGLAND  
 
CITY SKY/WX TMP DP RH WIND PRES REMARKS
 
PORTLAND ME CLOUDY 37 23 56 N9 30.56R WCI 30  
BANGOR ME FAIR 29 17 61 NW13 30.57R WCI 19  
CONCORD NH CLOUDY 37 19 48 NW13G21 30.58R WCI 29  
MANCHESTER NH CLOUDY 40 21 46 N8 30.56R  
NASHUA NH NOT AVBL  
PORTSMOUTH NH CLOUDY 40 23 52 NW8 30.56R  
JAFFREY NH CLOUDY 37 21 52 N5 30.54R  
KEENE NH CLOUDY 37 24 59 N10 30.57R WCI 30  
BURLINGTON VT FAIR 30 16 56 NW9 30.66R WCI 22  
MT. WASHINGTON PTCLDY 14 -2 48 NW56 N/A WCI -12  

 
 
NYZ052-076-221100-  
EASTERN NEW YORK  
 
CITY SKY/WX TMP DP RH WIND PRES REMARKS
 
ALBANY CLOUDY 38 27 64 N6 30.60R  
NEW YORK CITY CLOUDY 49 36 61 N9 30.53R  

 
 
ANZALL-221100-  
MARINE OBSERVATIONS  
 
STATION/POSITION TIME TEMP WIND PRES VSBY WAVE
 
AIR SEA DIR/SP/G HT/PER  
(UTC) (F) (DEG/KT/KT) (MB) (MI) (FT/S)  
BOSTON BUOY 0950 42 41 360/ 8/ 10 1033.6R 2/14  
BUZZARDS BAY 0900 46 20/ 12/ 13 1032.0R  
NANTUCKET SOUND 0850 43 38 10/ 16/ 19 1031.9 2/ 3  
MASS BAY-STELLWA 0904 42 41 1032.4R 2/ 3  
ISLE OF SHOALS 1000 41 10/ 13/ 15 1035.0R  
S OF BLOCK IS 0943 39 N/A 4/ 6  

 
   
.....................KEY......................
 
 
SKY/WX - SKY CONDITION/PRESENT WEATHER  
TMP - TEMPERATURE IN FAHRENHEIT  
DWPT - DEWPOINT IN FAHRENHEIT  
RH - RELATIVE HUMIDITY IN PERCENT  
WIND - DIRECTION AND SPEED IN MPH  
PRES - MEAN SEA LEVEL PRESSURE IN INCHES OF HG  
WCI - WIND CHILL INDEX  
VSB - VISIBILITY IN MILES  
HX - HEAT INDEX  
TC - TEMPERATURE IN CELSIUS  
VRB - VARIABLE WIND DIRECTION  
N/A - NOT AVAILABLE  
 
 
CLICK HERE TO GO TO PREVIOUS BULLETINS.

The Nexlab MA Page
The Nexlab RI Page
The Nexlab NH Page
The Nexlab CT Page Main Text Page